Terug naar catalogus

USA 254

ActiefMilitairGEO
NORAD 40100·PAYLOAD·🇺🇸 United States

Gelanceerd Jul 28, 2014 vanaf Cape Canaveral Space Force Station

Loading…

TLE

VersSource: Space-Track

Epoch: Sep 11, 2026, 17:54 UTC

1 40100U 14043B   26254.74646461 -.00000274  00000-0  00000+0 0  9997
2 40100   4.9341  75.0413 0001987 231.5030 112.7555  0.99134562 28428

Volg USA 254 in realtime met AllMySat

Download on the App Store